7 * 24
多渠道服务支持
STARLINK-11197是美国SpaceX公司“星链”(Starlink)星座中的一颗低轨互联网卫星,于2024年7月3日发射入轨。星链项目旨在打造全球覆盖的低轨卫星互联网,为偏远地区、灾害场景以及海陆空移动场景提供高速低延迟网络服务。 作为星链大规模组网的一环,该卫星延续了星链标准化设计,参与全球卫星互联网容量扩容,助力推进全球网络覆盖,不过星链的大规模扩张也引发了太空交通、天文观测等领域的争议。
美国
(US)
| 数据来源 | 国际轨道数据 |
| 星历时间: | 2026-05-24T10:43:07+0800 1天前 查看轨道信息 |
| 半长轴: | 6737.835km |
| 偏心率: | 0.0001387 |
| 轨道倾角: | 53.158° |
| 近地点辐角 | 118.717° |
| 升交点赤经 | 149.197° |
| 平近点角 | 241.399° |
| 近地点: | 358.763km |
| 远地点: | 360.633km |
| 周期: | 91.736分钟 |
| 每日圈数: | 15.697203 |